Regional Weather Roundup
Issued by NWS Jackson, KY

Home | Current Version | Previous Version | Graphics & Text | Print | Product List | Glossary On
Versions: 1 2 3 4 5 6 7 8 9 10 11 12 13 14 15 16 17 18 19 20 21 22 23 24 25 26 27
000
ASUS43 KJKL 221410
RWRJKL

EAST KENTUCKY HOURLY WEATHER ROUNDUP
NATIONAL WEATHER SERVICE JACKSON KY
900 AM EST WED FEB 22 2017

NOTE: "FAIR" INDICATES FEW OR NO CLOUDS BELOW 12,000 FEET WITH
NO SIGNIFICANT WEATHER AND/OR OBSTRUCTIONS TO VISIBILITY.

* THESE REPORTS ARE NOT UNDER NWS QUALITY CONTROL AND MAY NOT
  REPORT WEATHER SUCH AS PRECIPITATION AND FOG.

KYZ079-080-083-085-087-088-110-112-115-119-120-221500
...EASTERN KENTUCKY...

CITY           SKY/WX    TMP DP  RH WIND       PRES   REMARKS
JACKSON        CLOUDY    54  51  90 CALM      29.97S
LONDON         CLOUDY    54  52  93 N3        29.97S
SOMERSET*      CLOUDY    54  54 100 CALM      29.97F
MONTICELLO*    CLOUDY    55  54  96 W6        29.98R
WILLIAMSBURG*    N/A     54  54 100 CALM      29.95F
MIDDLESBORO*   LGT RAIN  54  52  95 SW5       29.99F
HARLAN APT*    CLOUDY    52  50  93 CALM      29.98S
PIKE CO APT*   DRIZZLE   52  52 100 SE3       29.98S
BIG SANDY APT* DRIZZLE   53  53 100 E3        29.97F
MOREHEAD APT*  LGT RAIN  55  54  94 VRB5      29.98S
ASHLAND*       CLOUDY    55  54  94 SE3       29.96S
$$

KYZ035-036-041-042-044-050-067-078-099-221500
...CENTRAL KENTUCKY...

CITY           SKY/WX    TMP DP  RH WIND       PRES   REMARKS
MT STERLING*   CLOUDY    54  54 100 CALM      29.98S
FLEMING/MASON* CLOUDY    54  54 100 SE5       29.97S FOG
DANVILLE*      CLOUDY    54  54 100 CALM      29.96S
LEXINGTON      CLOUDY    56  53  90 S3        29.95S FOG
FRANKFORT      CLOUDY    57  54  89 S3        29.94S FOG
LOUISVILLE     CLOUDY    59  54  83 SE6       29.93S
LEBANON*       CLOUDY    55  55 100 CALM      29.95S FOG
GLASGOW*       CLOUDY    56  56 100 SE5       29.93F
BOWLING GREEN  PTSUNNY   58  55  90 CALM      29.93S
$$

KYZ091>093-OHZ055-061-077-WVZ005-015-034-035-042-221500
...SOUTHERN OHIO/WEST VIRGINIA...

CITY           SKY/WX    TMP DP  RH WIND       PRES   REMARKS
COVINGTON      LGT RAIN  56  55  97 S7        29.93S FOG
COLUMBUS       LGT RAIN  56  55  97 S3        29.94F VSB 1/2
DAYTON         CLOUDY    55  54  96 S10       29.93F FOG
WILMINGTON     FOG       53  53 100 S3        29.94S VSB 1
HUNTINGTON     LGT RAIN  54  52  93 SE5       29.97F VSB 1
CHARLESTON     LGT RAIN  52  51  97 CALM      29.99F FOG
PINEVILLE*     DRIZZLE   50  48  90 MISG      30.04F
BECKLEY        CLOUDY    47  44  90 E6        30.01F
BLUEFIELD      LGT RAIN  45  44  97 E5        30.02S FOG
LOGAN CO APT*  CLOUDY    52  50  93 CALM      29.99S FOG
$$

VAZ002-007-008-TNZ017-027-036-066-071-221500
...SOUTHWEST VIRGINIA/EAST TENNESSEE...

CITY           SKY/WX    TMP DP  RH WIND       PRES   REMARKS
WISE*          LGT RAIN  50  50 100 SE3       30.00F
JONESVILLE*    LGT RAIN  52  52 100 CALM      30.02S
ABINGDON*      RAIN      50  49  95 E7        30.02S
BRISTOL        LGT RAIN  50  49  96 CALM      30.01S FOG
MORRISTOWN*    PTSUNNY   52  52 100 E6        29.98R FOG
SEVIERVILLE*   PTSUNNY   52  50  93 CALM      29.97S
KNOXVILLE      LGT RAIN  56  51  84 N8        29.96R
LAFOLLETTE*    CLOUDY    54  54 100 CALM      30.02R FOG
OAK RIDGE      LGT RAIN  55  53  93 NE3       29.99R FOG
CROSSVILLE     LGT RAIN  53  52  96 E3        29.97R FOG
NASHVILLE      CLOUDY    58  55  90 N6        29.93R
$$

...KEY TO REMARKS...
VSB - VISIBILITY IN MILES
WCI - WIND CHILL INDEX
HX  - HEAT INDEX

$$




USA.gov is the U.S. government's official web portal to all federal, state and local government web resources and services.